SWI199 RJOM-PAFA

Flight info

Callsign SWI199
Flight time N/A
Altitude 32000
Route RJOM RANDY YME NTE CAYAH BATTL BISEI TBE ODERI UREBI PTR TOZAR SUBEK MIFRA DIREN LUNOP DIPEK OGTES BUKOT UNTAM AMISA BAMOK MORLY EPLOS KIVAK LESAD SMA MCG MOUTN CAWIN PAFA
Aircraft A333/H-GPS/L

Departure

Time 2026-04-17 13:04
Airport Matsuyama Airport (RJOM)

Arrival

Time N/A
Airport Fairbanks International Airport (PAFA)
Time Latitude Longitude Altitude Speed Heading
2026-04-17 12:49 33.82832 132.70361 30 ft 0 kts 41°
2026-04-17 12:54 33.82816 132.70344 30 ft 3 kts 41°
2026-04-17 12:55 33.82806 132.70334 30 ft 1 kts 38°
2026-04-17 12:55 33.82798 132.70328 30 ft 1 kts 29°
2026-04-17 12:55 33.82790 132.70322 29 ft 1 kts 13°
2026-04-17 12:55 33.82782 132.70320 29 ft 1 kts 358°
2026-04-17 12:56 33.82774 132.70322 29 ft 1 kts 344°
2026-04-17 12:56 33.82766 132.70323 29 ft 1 kts 330°
2026-04-17 12:56 33.82760 132.70329 29 ft 1 kts 316°
2026-04-17 12:56 33.82755 132.70335 29 ft 0 kts 311°
2026-04-17 12:57 33.82754 132.70337 29 ft 0 kts 310°
2026-04-17 12:59 33.82756 132.70332 29 ft 3 kts 310°
2026-04-17 12:59 33.82787 132.70285 28 ft 11 kts 304°
2026-04-17 12:59 33.82830 132.70167 27 ft 19 kts 291°
2026-04-17 13:00 33.82919 132.69995 22 ft 29 kts 312°
2026-04-17 13:00 33.83077 132.69791 18 ft 37 kts 311°
2026-04-17 13:00 33.83255 132.69522 17 ft 44 kts 309°
2026-04-17 13:00 33.83463 132.69243 19 ft 44 kts 313°
2026-04-17 13:01 33.83546 132.69087 20 ft 0 kts 269°
2026-04-17 13:03 33.83546 132.69083 20 ft 3 kts 267°
2026-04-17 13:03 33.83520 132.69023 20 ft 12 kts 229°
2026-04-17 13:03 33.83405 132.69019 19 ft 30 kts 135°
2026-04-17 13:03 33.83134 132.69392 17 ft 89 kts 130°
2026-04-17 13:04 33.82597 132.70146 24 ft 143 kts 132°
2026-04-17 13:04 33.81850 132.71211 30 ft 187 kts 127°
2026-04-17 13:04 33.80997 132.72409 587 ft 184 kts 134°
2026-04-17 13:04 33.80138 132.73476 1303 ft 181 kts 137°
2026-04-17 13:05 33.79080 132.74480 1125 ft 224 kts 140°
2026-04-17 13:05 33.77788 132.75777 1485 ft 252 kts 143°
2026-04-17 13:05 33.76442 132.77199 2368 ft 260 kts 137°
2026-04-17 13:05 33.75291 132.78735 3595 ft 254 kts 130°
2026-04-17 13:06 33.74162 132.80475 4266 ft 269 kts 122°
2026-04-17 13:06 33.73587 132.82597 5036 ft 281 kts 95°
2026-04-17 13:06 33.73895 132.84943 5830 ft 293 kts 69°
2026-04-17 13:06 33.75083 132.86977 6619 ft 305 kts 43°
2026-04-17 13:07 33.76911 132.88255 7369 ft 314 kts 19°
2026-04-17 13:07 33.79005 132.89046 8191 ft 318 kts 17°
2026-04-17 13:07 33.81106 132.89893 9038 ft 320 kts 23°
2026-04-17 13:07 33.83014 132.91203 9823 ft 323 kts 36°
2026-04-17 13:08 33.84771 132.92937 10623 ft 325 kts 41°
2026-04-17 13:08 33.86386 132.94778 11401 ft 326 kts 43°
2026-04-17 13:08 33.87976 132.96725 12184 ft 326 kts 45°
2026-04-17 13:08 33.89527 132.98698 12946 ft 325 kts 45°
2026-04-17 13:09 33.91057 133.00681 13678 ft 324 kts 44°
2026-04-17 13:09 33.92578 133.02663 14364 ft 323 kts 44°
2026-04-17 13:09 33.94101 133.04658 14876 ft 327 kts 45°
2026-04-17 13:09 33.95638 133.06682 15337 ft 333 kts 45°
2026-04-17 13:10 33.97223 133.08769 15751 ft 341 kts 45°
2026-04-17 13:10 33.98850 133.10915 15987 ft 354 kts 45°
2026-04-17 13:10 34.00528 133.13127 16284 ft 365 kts 45°
2026-04-17 13:10 34.02251 133.15405 16678 ft 373 kts 45°
2026-04-17 13:11 34.04018 133.17743 17062 ft 381 kts 45°
2026-04-17 13:11 34.05819 133.20125 17435 ft 388 kts 45°
2026-04-17 13:11 34.07664 133.22571 17807 ft 396 kts 45°
2026-04-17 13:11 34.09519 133.25026 18183 ft 403 kts 45°
2026-04-17 13:12 34.11433 133.27563 18555 ft 410 kts 45°
2026-04-17 13:12 34.15307 133.32706 19297 ft 422 kts 45°
2026-04-17 13:12 34.17313 133.35370 19669 ft 428 kts 45°
2026-04-17 13:13 34.19329 133.38052 20038 ft 434 kts 45°
2026-04-17 13:13 34.21366 133.40761 20410 ft 439 kts 45°
2026-04-17 13:13 34.23398 133.43469 20778 ft 443 kts 45°
2026-04-17 13:13 34.25504 133.46277 21153 ft 448 kts 45°
2026-04-17 13:14 34.27576 133.49042 21518 ft 452 kts 45°
2026-04-17 13:14 34.29698 133.51872 21887 ft 455 kts 45°
2026-04-17 13:14 34.31824 133.54713 22256 ft 458 kts 45°
2026-04-17 13:14 34.33990 133.57610 22628 ft 461 kts 45°
2026-04-17 13:15 34.36145 133.60495 22994 ft 464 kts 45°
2026-04-17 13:15 34.38303 133.63386 23371 ft 466 kts 45°
2026-04-17 13:15 34.40487 133.66313 23742 ft 468 kts 45°
2026-04-17 13:15 34.42667 133.69237 24086 ft 470 kts 45°
2026-04-17 13:16 34.44847 133.72170 24448 ft 471 kts 45°
2026-04-17 13:16 34.47038 133.75114 24821 ft 472 kts 44°
2026-04-17 13:16 34.49241 133.78072 25185 ft 473 kts 45°
2026-04-17 13:16 34.51437 133.81032 25543 ft 473 kts 44°
2026-04-17 13:17 34.53619 133.83974 25987 ft 468 kts 44°
2026-04-17 13:17 34.55769 133.86873 26529 ft 463 kts 44°
2026-04-17 13:17 34.57933 133.89792 26832 ft 464 kts 44°
2026-04-17 13:17 34.60071 133.92679 27194 ft 463 kts 44°
2026-04-17 13:18 34.62222 133.95586 27565 ft 461 kts 44°
2026-04-17 13:18 34.64360 133.98480 27865 ft 461 kts 43°
2026-04-17 13:18 34.66501 134.01378 28088 ft 462 kts 43°
2026-04-17 13:18 34.68646 134.04285 28331 ft 463 kts 43°
2026-04-17 13:19 34.70782 134.07182 28477 ft 467 kts 43°
2026-04-17 13:19 34.72960 134.10135 28598 ft 471 kts 43°
2026-04-17 13:19 34.75141 134.13100 28745 ft 474 kts 43°
2026-04-17 13:19 34.77338 134.16089 28883 ft 477 kts 43°
2026-04-17 13:20 34.79563 134.19115 29019 ft 481 kts 44°
2026-04-17 13:20 34.81790 134.22151 29156 ft 484 kts 43°
2026-04-17 13:20 34.84035 134.25209 29292 ft 487 kts 44°
2026-04-17 13:20 34.86288 134.28285 29430 ft 490 kts 44°
2026-04-17 13:21 34.88544 134.31369 29570 ft 493 kts 44°
2026-04-17 13:21 34.90852 134.34525 29707 ft 496 kts 44°
2026-04-17 13:21 34.93131 134.37643 29848 ft 499 kts 43°
2026-04-17 13:21 34.95446 134.40813 29989 ft 501 kts 43°
2026-04-17 13:22 34.97775 134.44006 30133 ft 504 kts 43°
2026-04-17 13:22 35.00103 134.47200 30276 ft 507 kts 43°
2026-04-17 13:22 35.02441 134.50415 30440 ft 509 kts 43°
2026-04-17 13:22 35.04797 134.53648 30567 ft 511 kts 43°
2026-04-17 13:23 35.07134 134.56869 30717 ft 513 kts 43°
2026-04-17 13:23 35.09500 134.60124 30858 ft 515 kts 43°
2026-04-17 13:23 35.11901 134.63437 31000 ft 517 kts 43°
2026-04-17 13:23 35.14286 134.66724 31127 ft 519 kts 43°
2026-04-17 13:24 35.16651 134.69995 31231 ft 520 kts 43°
2026-04-17 13:24 35.19039 134.73296 31359 ft 521 kts 43°
2026-04-17 13:24 35.21455 134.76639 31474 ft 523 kts 43°
2026-04-17 13:24 35.23841 134.79945 31592 ft 524 kts 43°
2026-04-17 13:25 35.26259 134.83298 31699 ft 525 kts 43°
2026-04-17 13:25 35.28654 134.86624 31817 ft 525 kts 43°
2026-04-17 13:25 35.31079 134.89993 31944 ft 526 kts 43°
2026-04-17 13:25 35.33504 134.93362 32034 ft 527 kts 43°
2026-04-17 13:26 35.38356 135.00120 32040 ft 534 kts 43°
2026-04-17 13:26 35.43285 135.06999 32040 ft 540 kts 43°
2026-04-17 13:27 35.48274 135.13852 32026 ft 540 kts 37°
2026-04-17 13:27 35.54098 135.19608 32055 ft 537 kts 31°
2026-04-17 13:28 35.59944 135.25336 32062 ft 541 kts 31°
2026-04-17 13:28 35.65823 135.31116 31991 ft 545 kts 32°
2026-04-17 13:29 35.71746 135.36955 31994 ft 548 kts 32°
2026-04-17 13:29 35.77700 135.42835 32071 ft 548 kts 31°
2026-04-17 13:30 35.83624 135.48697 32065 ft 549 kts 32°
2026-04-17 13:30 35.89601 135.54620 31984 ft 552 kts 32°
2026-04-17 13:31 35.92600 135.57596 32092 ft 551 kts 32°
2026-04-17 13:31 35.95595 135.60573 31981 ft 554 kts 32°
2026-04-17 13:31 36.01565 135.66515 32053 ft 553 kts 32°
2026-04-17 13:32 36.03151 135.68094 31952 ft 555 kts 33°
2026-04-17 13:32 36.06146 135.71081 32001 ft 553 kts 33°
2026-04-17 13:32 36.12102 135.77026 31914 ft 555 kts 32°
2026-04-17 13:33 36.15104 135.80039 32057 ft 551 kts 32°
2026-04-17 13:33 36.18065 135.82996 31989 ft 553 kts 33°
2026-04-17 13:33 36.24026 135.88979 32088 ft 550 kts 33°
2026-04-17 13:34 36.27014 135.91974 31903 ft 554 kts 33°
2026-04-17 13:34 36.30003 135.94981 32023 ft 551 kts 33°
2026-04-17 13:34 36.35954 136.00972 31888 ft 554 kts 32°
2026-04-17 13:35 36.38945 136.03995 32103 ft 549 kts 33°
2026-04-17 13:35 36.41920 136.06993 31951 ft 554 kts 33°
2026-04-17 13:35 36.47838 136.12979 32091 ft 551 kts 33°
2026-04-17 13:36 36.50841 136.16014 31913 ft 555 kts 33°
2026-04-17 13:36 36.53832 136.19046 32023 ft 552 kts 33°
2026-04-17 13:36 36.59794 136.25099 31935 ft 555 kts 33°
2026-04-17 13:37 36.62739 136.28099 32060 ft 553 kts 33°
2026-04-17 13:37 36.65754 136.31165 31974 ft 555 kts 33°
2026-04-17 13:37 36.71708 136.37234 32063 ft 553 kts 33°
2026-04-17 13:38 36.74673 136.40256 31951 ft 556 kts 33°
2026-04-17 13:38 36.77650 136.43304 32017 ft 554 kts 33°
2026-04-17 13:38 36.83635 136.49425 31927 ft 558 kts 33°
2026-04-17 13:39 36.86633 136.52504 32058 ft 555 kts 33°
2026-04-17 13:39 36.89589 136.55536 32012 ft 557 kts 33°
2026-04-17 13:39 36.95557 136.61675 32113 ft 555 kts 33°
2026-04-17 13:40 36.98576 136.64774 31947 ft 560 kts 33°
2026-04-17 13:40 37.01586 136.67876 31974 ft 558 kts 34°
2026-04-17 13:40 37.07568 136.74051 31913 ft 560 kts 35°
2026-04-17 13:41 37.10544 136.77135 32028 ft 556 kts 34°
2026-04-17 13:41 37.13537 136.80231 32023 ft 557 kts 34°
2026-04-17 13:41 37.16531 136.83327 31914 ft 559 kts 34°
2026-04-17 13:41 37.19480 136.86389 32057 ft 555 kts 34°
2026-04-17 13:42 37.25461 136.92601 31961 ft 557 kts 34°
2026-04-17 13:42 37.28455 136.95718 32085 ft 555 kts 34°
2026-04-17 13:42 37.31445 136.98700 31939 ft 557 kts 32°
2026-04-17 13:43 37.37564 137.04697 32038 ft 554 kts 33°
2026-04-17 13:43 37.40605 137.07692 31937 ft 557 kts 32°
2026-04-17 13:43 37.43605 137.10654 32067 ft 554 kts 32°
2026-04-17 13:44 37.49685 137.16649 31956 ft 556 kts 33°
2026-04-17 13:44 37.52718 137.19649 32069 ft 554 kts 32°
2026-04-17 13:44 37.55772 137.22672 31936 ft 557 kts 32°
2026-04-17 13:45 37.61831 137.28679 32046 ft 555 kts 32°
2026-04-17 13:45 37.64871 137.31696 31916 ft 557 kts 33°
2026-04-17 13:45 37.67899 137.34708 32070 ft 554 kts 33°
2026-04-17 13:46 37.74004 137.40788 31970 ft 557 kts 33°
2026-04-17 13:46 37.77020 137.43794 32076 ft 555 kts 32°
2026-04-17 13:46 37.80077 137.46840 31931 ft 559 kts 33°
2026-04-17 13:47 37.83107 137.49870 32052 ft 556 kts 33°
2026-04-17 13:47 37.86142 137.52908 32020 ft 558 kts 33°
2026-04-17 13:47 37.92224 137.59001 32103 ft 556 kts 33°
2026-04-17 13:48 37.95273 137.62065 31953 ft 561 kts 33°
2026-04-17 13:48 37.98315 137.65117 32006 ft 559 kts 33°
2026-04-17 13:48 38.04428 137.71275 31916 ft 561 kts 33°
2026-04-17 13:49 38.07474 137.74344 32061 ft 558 kts 33°
2026-04-17 13:49 38.10515 137.77412 31988 ft 560 kts 33°
2026-04-17 13:49 38.16621 137.83585 32063 ft 558 kts 33°
2026-04-17 13:50 38.19671 137.86670 31929 ft 560 kts 34°
2026-04-17 13:50 38.22709 137.89754 32004 ft 558 kts 33°
2026-04-17 13:50 38.28765 137.95898 31926 ft 560 kts 34°
2026-04-17 13:51 38.31817 137.99007 32054 ft 557 kts 33°
2026-04-17 13:51 38.34840 138.02083 31996 ft 559 kts 33°
2026-04-17 13:51 38.40896 138.08255 32078 ft 557 kts 34°
2026-04-17 13:52 38.43938 138.11365 31940 ft 560 kts 34°
2026-04-17 13:52 38.46975 138.14470 32009 ft 558 kts 34°
2026-04-17 13:52 38.53036 138.20680 31923 ft 561 kts 33°
2026-04-17 13:53 38.56083 138.23805 32063 ft 557 kts 34°
2026-04-17 13:53 38.59081 138.26886 31988 ft 560 kts 34°
2026-04-17 13:53 38.65139 138.33119 32061 ft 557 kts 34°
2026-04-17 13:54 38.74107 138.42740 32037 ft 560 kts 36°
2026-04-17 13:55 38.83024 138.52464 31969 ft 561 kts 36°
2026-04-17 13:55 38.88963 138.58963 32077 ft 559 kts 35°
2026-04-17 13:56 38.94916 138.65488 32012 ft 560 kts 37°
2026-04-17 13:56 39.00844 138.72003 31898 ft 562 kts 36°
2026-04-17 13:57 39.03796 138.75255 32053 ft 558 kts 36°
2026-04-17 13:57 39.06739 138.78497 31961 ft 561 kts 36°
2026-04-17 13:58 39.15658 138.88348 31897 ft 561 kts 37°
2026-04-17 13:58 39.21541 138.94869 31999 ft 558 kts 37°
2026-04-17 13:58 39.24501 138.98152 31906 ft 560 kts 37°
2026-04-17 13:59 39.33295 139.07938 31964 ft 559 kts 37°
2026-04-17 14:00 39.39225 139.14546 31904 ft 561 kts 37°
2026-04-17 14:00 39.42181 139.17854 32025 ft 557 kts 36°
2026-04-17 14:00 39.45106 139.21126 31999 ft 559 kts 37°
2026-04-17 14:01 39.51024 139.27757 32054 ft 558 kts 37°
2026-04-17 14:01 39.56923 139.34386 31969 ft 559 kts 37°
2026-04-17 14:02 39.62769 139.40968 31929 ft 561 kts 36°
2026-04-17 14:02 39.68643 139.47600 32010 ft 560 kts 36°
2026-04-17 14:03 39.74517 139.54242 32042 ft 559 kts 37°
2026-04-17 14:03 39.80444 139.60963 31980 ft 562 kts 36°
2026-04-17 14:04 39.86353 139.67676 31922 ft 563 kts 37°
2026-04-17 14:04 39.92201 139.74339 32007 ft 561 kts 37°
2026-04-17 14:05 39.98077 139.81050 32041 ft 560 kts 37°
2026-04-17 14:05 40.03975 139.87808 31949 ft 562 kts 37°
2026-04-17 14:05 40.06885 139.91142 32053 ft 560 kts 37°
2026-04-17 14:06 40.09837 139.94528 31917 ft 564 kts 38°
2026-04-17 14:06 40.15693 140.01266 32009 ft 561 kts 37°
2026-04-17 14:06 40.18613 140.04629 31905 ft 563 kts 37°
2026-04-17 14:07 40.21549 140.08020 32043 ft 559 kts 37°
2026-04-17 14:07 40.27419 140.14801 31945 ft 561 kts 37°
2026-04-17 14:08 40.33255 140.21564 31913 ft 562 kts 37°
2026-04-17 14:08 40.39077 140.28330 31995 ft 561 kts 37°
2026-04-17 14:09 40.44900 140.35104 32044 ft 559 kts 37°
2026-04-17 14:09 40.47808 140.38495 31938 ft 562 kts 37°
2026-04-17 14:09 40.50709 140.41884 31946 ft 561 kts 37°
2026-04-17 14:10 40.56543 140.48708 31904 ft 563 kts 37°
2026-04-17 14:10 40.62321 140.55484 31995 ft 561 kts 37°
2026-04-17 14:11 40.68164 140.62357 32044 ft 560 kts 37°
2026-04-17 14:11 40.73982 140.69208 31915 ft 562 kts 37°
2026-04-17 14:11 40.76855 140.72595 32030 ft 559 kts 37°
2026-04-17 14:12 40.79760 140.76035 31899 ft 562 kts 38°
2026-04-17 14:12 40.85535 140.82873 32008 ft 560 kts 37°
2026-04-17 14:13 40.94248 140.93216 31947 ft 561 kts 37°
2026-04-17 14:13 40.99999 141.00072 32027 ft 559 kts 37°
2026-04-17 14:14 41.02915 141.03549 31898 ft 562 kts 37°
2026-04-17 14:14 41.05818 141.07002 31952 ft 558 kts 36°
2026-04-17 14:14 41.11991 141.13104 31870 ft 556 kts 31°
2026-04-17 14:15 41.15068 141.16157 31985 ft 553 kts 31°
2026-04-17 14:15 41.18121 141.19196 31949 ft 555 kts 31°
2026-04-17 14:15 41.24308 141.25369 32019 ft 553 kts 31°
2026-04-17 14:16 41.27345 141.28403 31898 ft 556 kts 31°
2026-04-17 14:16 41.30415 141.31482 31952 ft 554 kts 31°
2026-04-17 14:16 41.36583 141.37665 31871 ft 557 kts 31°
2026-04-17 14:17 41.39672 141.40770 32015 ft 553 kts 31°
2026-04-17 14:17 41.42725 141.43837 31948 ft 555 kts 31°
2026-04-17 14:17 41.48865 141.50029 32039 ft 553 kts 31°
2026-04-17 14:18 41.51933 141.53122 31886 ft 557 kts 31°
2026-04-17 14:18 41.55016 141.56241 31974 ft 554 kts 31°
2026-04-17 14:18 41.61176 141.62477 31875 ft 557 kts 31°
2026-04-17 14:19 41.64230 141.65579 32036 ft 553 kts 32°
2026-04-17 14:19 41.67274 141.68672 31915 ft 556 kts 31°
2026-04-17 14:19 41.73400 141.74905 32030 ft 551 kts 31°
2026-04-17 14:20 41.76461 141.78023 31856 ft 554 kts 31°
2026-04-17 14:20 41.79504 141.81133 32009 ft 549 kts 31°
2026-04-17 14:20 41.85578 141.87343 31883 ft 552 kts 31°
2026-04-17 14:21 41.88634 141.90477 32052 ft 548 kts 31°
2026-04-17 14:21 41.91642 141.93558 31890 ft 552 kts 31°
2026-04-17 14:21 41.97705 141.99791 32018 ft 550 kts 31°
2026-04-17 14:22 42.00751 142.02928 31867 ft 552 kts 31°
2026-04-17 14:22 42.03791 142.06062 32065 ft 548 kts 31°
2026-04-17 14:22 42.06798 142.09164 31940 ft 552 kts 31°
2026-04-17 14:22 42.09871 142.12341 31939 ft 551 kts 31°
2026-04-17 14:23 42.12895 142.15471 32052 ft 549 kts 31°
2026-04-17 14:23 42.15897 142.18579 31870 ft 552 kts 31°
2026-04-17 14:23 42.18921 142.21718 32019 ft 548 kts 32°
2026-04-17 14:23 42.21933 142.24847 31978 ft 549 kts 31°
2026-04-17 14:24 42.27975 142.31133 32052 ft 547 kts 32°
2026-04-17 14:24 42.30986 142.34270 31898 ft 550 kts 31°
2026-04-17 14:24 42.34011 142.37428 31986 ft 547 kts 31°
2026-04-17 14:25 42.40029 142.43721 31876 ft 550 kts 31°
2026-04-17 14:25 42.43023 142.46861 32033 ft 546 kts 31°
2026-04-17 14:25 42.46033 142.50012 31910 ft 549 kts 31°
2026-04-17 14:26 42.52036 142.56325 32028 ft 546 kts 31°
2026-04-17 14:26 42.55047 142.59491 31857 ft 549 kts 31°
2026-04-17 14:26 42.58027 142.62636 32015 ft 545 kts 31°
2026-04-17 14:27 42.64050 142.68994 31862 ft 547 kts 32°
2026-04-17 14:27 42.67050 142.72174 32051 ft 543 kts 32°
2026-04-17 14:27 42.70050 142.75348 31839 ft 548 kts 32°
2026-04-17 14:28 42.73022 142.78502 31961 ft 543 kts 32°
2026-04-17 14:28 42.76017 142.81685 31988 ft 544 kts 32°
2026-04-17 14:28 42.78997 142.84851 31834 ft 546 kts 32°
2026-04-17 14:28 42.81963 142.88013 32027 ft 542 kts 32°
2026-04-17 14:29 42.84921 142.91167 31883 ft 545 kts 32°
2026-04-17 14:29 42.87872 142.94421 31880 ft 546 kts 36°
2026-04-17 14:29 42.90709 142.97836 31997 ft 544 kts 36°
2026-04-17 14:29 42.93555 143.01224 31837 ft 547 kts 36°
2026-04-17 14:30 42.96459 143.04681 31976 ft 543 kts 36°
2026-04-17 14:30 42.99304 143.08069 31918 ft 545 kts 36°
2026-04-17 14:30 43.04972 143.14841 31998 ft 543 kts 36°
2026-04-17 14:31 43.07821 143.18247 31870 ft 546 kts 36°
2026-04-17 14:31 43.10671 143.21660 31937 ft 544 kts 36°
2026-04-17 14:31 43.16336 143.28459 31831 ft 546 kts 36°
2026-04-17 14:32 43.19206 143.31908 31989 ft 542 kts 36°
2026-04-17 14:32 43.22036 143.35318 31908 ft 545 kts 36°
2026-04-17 14:32 43.27685 143.42133 31984 ft 542 kts 36°
2026-04-17 14:33 43.30519 143.45554 31879 ft 545 kts 36°
2026-04-17 14:33 43.33359 143.48993 31934 ft 543 kts 36°
2026-04-17 14:33 43.39042 143.55884 31862 ft 545 kts 36°
2026-04-17 14:34 43.41888 143.59338 31975 ft 541 kts 36°
2026-04-17 14:34 43.44700 143.62761 31918 ft 543 kts 36°
2026-04-17 14:34 43.50323 143.69612 31953 ft 542 kts 37°
2026-04-17 14:35 43.55958 143.76503 31914 ft 541 kts 37°
2026-04-17 14:35 43.61591 143.83401 31840 ft 543 kts 37°
2026-04-17 14:36 43.64412 143.86865 31953 ft 540 kts 37°
2026-04-17 14:36 43.67229 143.90329 31925 ft 541 kts 37°
2026-04-17 14:36 43.72851 143.97252 31978 ft 540 kts 37°
2026-04-17 14:37 43.78443 144.04155 31898 ft 542 kts 37°
2026-04-17 14:37 43.84056 144.11102 31838 ft 544 kts 37°
2026-04-17 14:38 43.86863 144.14589 31945 ft 540 kts 37°
2026-04-17 14:38 43.89620 144.18105 31905 ft 544 kts 40°
2026-04-17 14:38 43.94922 144.25594 31985 ft 541 kts 41°
2026-04-17 14:39 43.97579 144.29324 31840 ft 545 kts 40°
2026-04-17 14:39 44.00234 144.33050 31911 ft 542 kts 41°
2026-04-17 14:39 44.05543 144.40515 31837 ft 544 kts 40°
2026-04-17 14:40 44.08202 144.44266 31963 ft 540 kts 40°
2026-04-17 14:40 44.10813 144.47948 31897 ft 542 kts 40°
2026-04-17 14:40 44.16111 144.55441 31979 ft 540 kts 41°
2026-04-17 14:41 44.18721 144.59140 31855 ft 542 kts 40°
2026-04-17 14:41 44.21376 144.62906 31947 ft 539 kts 40°
2026-04-17 14:41 44.26638 144.70383 31844 ft 541 kts 41°
2026-04-17 14:42 44.29268 144.74133 31968 ft 537 kts 41°
2026-04-17 14:42 44.31881 144.77859 31895 ft 539 kts 41°
2026-04-17 14:42 44.37087 144.85301 31973 ft 536 kts 41°
2026-04-17 14:43 44.39696 144.89037 31869 ft 539 kts 41°
2026-04-17 14:43 44.42285 144.92749 31915 ft 537 kts 41°
2026-04-17 14:43 44.47499 145.00247 31869 ft 538 kts 41°
2026-04-17 14:44 44.50090 145.03975 31970 ft 535 kts 41°
2026-04-17 14:44 44.52692 145.07726 31926 ft 537 kts 40°
2026-04-17 14:44 44.57899 145.15253 31992 ft 535 kts 41°
2026-04-17 14:45 44.63041 145.22746 31934 ft 538 kts 45°
2026-04-17 14:45 44.65180 145.27084 31970 ft 544 kts 59°
2026-04-17 14:45 44.66587 145.32018 31939 ft 548 kts 71°
2026-04-17 14:46 44.68957 145.42172 31929 ft 549 kts 70°
2026-04-17 14:46 44.71352 145.52315 31970 ft 549 kts 69°
2026-04-17 14:47 44.73754 145.62520 31943 ft 550 kts 69°
2026-04-17 14:47 44.76138 145.72696 31889 ft 551 kts 70°
2026-04-17 14:48 44.78506 145.82849 31947 ft 549 kts 70°
2026-04-17 14:48 44.80868 145.93028 31989 ft 547 kts 70°
2026-04-17 14:49 44.83227 146.03236 31940 ft 548 kts 70°
2026-04-17 14:49 44.85571 146.13437 31916 ft 549 kts 70°
2026-04-17 14:50 44.87907 146.23647 31969 ft 548 kts 69°
2026-04-17 14:50 44.90239 146.33878 32004 ft 547 kts 70°
2026-04-17 14:51 44.92570 146.44159 31937 ft 548 kts 70°
2026-04-17 14:51 44.94882 146.54402 31905 ft 549 kts 70°
2026-04-17 14:52 44.97186 146.64670 31991 ft 548 kts 70°
2026-04-17 14:52 44.98323 146.69746 31889 ft 549 kts 70°
2026-04-17 14:52 44.99483 146.74945 32024 ft 546 kts 70°
2026-04-17 14:53 45.01749 146.85144 31923 ft 547 kts 70°
2026-04-17 14:53 45.04023 146.95416 31890 ft 548 kts 70°
2026-04-17 14:54 45.05160 147.00560 31996 ft 545 kts 70°
2026-04-17 14:54 45.06292 147.05713 31965 ft 547 kts 70°
2026-04-17 14:54 45.08533 147.15941 32044 ft 544 kts 70°
2026-04-17 14:55 45.09654 147.21071 31909 ft 548 kts 71°
2026-04-17 14:55 45.10695 147.26265 31963 ft 546 kts 72°
2026-04-17 14:55 45.12744 147.36574 31892 ft 549 kts 72°
2026-04-17 14:56 45.13779 147.41792 32022 ft 546 kts 71°
2026-04-17 14:56 45.14807 147.46989 31968 ft 548 kts 72°
2026-04-17 14:56 45.16851 147.57371 32039 ft 547 kts 72°
2026-04-17 14:57 45.17877 147.62619 31921 ft 550 kts 72°
2026-04-17 14:57 45.18893 147.67802 31978 ft 548 kts 72°
2026-04-17 14:57 45.20918 147.78204 31920 ft 549 kts 72°
2026-04-17 14:58 45.22949 147.88673 31949 ft 549 kts 72°
2026-04-17 14:58 45.25373 147.98857 31996 ft 539 kts 56°
2026-04-17 14:59 45.27460 148.03119 31953 ft 530 kts 45°
2026-04-17 14:59 45.29765 148.07260 31994 ft 531 kts 46°
2026-04-17 14:59 45.34288 148.15550 31943 ft 533 kts 47°
2026-04-17 15:00 45.38821 148.23908 31931 ft 534 kts 46°
2026-04-17 15:00 45.43339 148.32263 32007 ft 532 kts 46°
2026-04-17 15:01 45.47873 148.40671 32021 ft 532 kts 46°
2026-04-17 15:01 45.52349 148.48993 31921 ft 534 kts 46°
2026-04-17 15:02 45.54599 148.53192 32043 ft 531 kts 46°
2026-04-17 15:02 45.56853 148.57396 31902 ft 535 kts 46°
2026-04-17 15:02 45.61350 148.65813 31980 ft 533 kts 47°
2026-04-17 15:03 45.63596 148.70023 31844 ft 534 kts 47°
2026-04-17 15:03 45.65856 148.74268 32026 ft 530 kts 47°
2026-04-17 15:03 45.68087 148.78465 31913 ft 533 kts 47°
2026-04-17 15:03 45.70313 148.82657 31909 ft 533 kts 47°
2026-04-17 15:04 45.72549 148.86874 32042 ft 531 kts 47°
2026-04-17 15:04 45.74773 148.91077 31885 ft 534 kts 47°
2026-04-17 15:04 45.77014 148.95317 32012 ft 530 kts 47°
2026-04-17 15:04 45.79252 148.99558 31972 ft 532 kts 47°
2026-04-17 15:05 45.83701 149.08008 32046 ft 531 kts 47°
2026-04-17 15:05 45.85915 149.12218 31907 ft 534 kts 47°
2026-04-17 15:05 45.88152 149.16486 31993 ft 531 kts 47°
2026-04-17 15:06 45.92577 149.24939 31890 ft 534 kts 47°
2026-04-17 15:06 45.94807 149.29211 32046 ft 531 kts 47°
2026-04-17 15:06 45.97036 149.33487 31940 ft 534 kts 47°
2026-04-17 15:07 46.01459 149.41988 32034 ft 532 kts 47°
2026-04-17 15:07 46.03695 149.46294 31909 ft 535 kts 47°
2026-04-17 15:07 46.05898 149.50552 32019 ft 532 kts 47°
2026-04-17 15:08 46.10347 149.59149 31925 ft 534 kts 47°
2026-04-17 15:08 46.12570 149.63461 32073 ft 532 kts 47°
2026-04-17 15:08 46.14777 149.67743 31894 ft 536 kts 48°
2026-04-17 15:09 46.19191 149.76335 32016 ft 533 kts 48°
2026-04-17 15:09 46.21417 149.80672 31873 ft 535 kts 48°
2026-04-17 15:09 46.23612 149.84966 32061 ft 531 kts 47°
2026-04-17 15:10 46.25792 149.89226 31910 ft 534 kts 48°
2026-04-17 15:10 46.27993 149.93539 31937 ft 532 kts 48°
2026-04-17 15:10 46.30213 149.97900 32045 ft 531 kts 48°
2026-04-17 15:11 46.34619 150.06572 32039 ft 530 kts 47°
2026-04-17 15:11 46.38974 150.15163 31890 ft 532 kts 48°
2026-04-17 15:11 46.41150 150.19470 32072 ft 529 kts 48°
2026-04-17 15:12 46.43337 150.23799 31841 ft 533 kts 47°
2026-04-17 15:12 46.45520 150.28133 32031 ft 529 kts 47°
2026-04-17 15:12 46.47682 150.32434 31967 ft 531 kts 47°
2026-04-17 15:13 46.52016 150.41069 32090 ft 528 kts 47°
2026-04-17 15:13 46.54174 150.45373 31846 ft 533 kts 47°
2026-04-17 15:13 46.56347 150.49721 32016 ft 528 kts 47°
2026-04-17 15:14 46.60649 150.58342 31857 ft 532 kts 47°
2026-04-17 15:14 46.62822 150.62714 32098 ft 527 kts 47°
2026-04-17 15:14 46.65001 150.67091 31849 ft 532 kts 48°
2026-04-17 15:14 46.67178 150.71484 31989 ft 527 kts 48°
2026-04-17 15:15 46.69313 150.75792 32011 ft 528 kts 47°
2026-04-17 15:15 46.71469 150.80148 31829 ft 530 kts 48°
2026-04-17 15:15 46.73616 150.84503 32106 ft 525 kts 47°
2026-04-17 15:15 46.75764 150.88855 31863 ft 530 kts 48°
2026-04-17 15:16 46.77906 150.93210 31974 ft 526 kts 47°
2026-04-17 15:16 46.82184 151.01918 31826 ft 529 kts 47°
2026-04-17 15:16 46.84317 151.06273 32102 ft 523 kts 47°
2026-04-17 15:17 46.86452 151.10632 31872 ft 529 kts 47°
2026-04-17 15:17 46.90705 151.19353 32056 ft 525 kts 47°
2026-04-17 15:17 46.92833 151.23718 31823 ft 528 kts 47°
2026-04-17 15:18 46.94951 151.28082 32103 ft 522 kts 47°
2026-04-17 15:18 46.97071 151.32443 31897 ft 528 kts 47°
2026-04-17 15:18 46.99159 151.36755 31952 ft 525 kts 47°
2026-04-17 15:18 47.01270 151.41119 32074 ft 524 kts 47°
2026-04-17 15:19 47.03416 151.45557 31829 ft 528 kts 47°
2026-04-17 15:19 47.05505 151.49895 32096 ft 522 kts 47°
2026-04-17 15:19 47.07621 151.54285 31921 ft 526 kts 47°
2026-04-17 15:20 47.11835 151.63055 32091 ft 523 kts 47°
2026-04-17 15:20 47.13940 151.67442 31847 ft 528 kts 48°
2026-04-17 15:20 47.16056 151.71872 32068 ft 522 kts 48°
2026-04-17 15:20 47.18151 151.76256 31958 ft 526 kts 47°
2026-04-17 15:21 47.20239 151.80637 31908 ft 526 kts 47°
2026-04-17 15:21 47.22371 151.85112 32099 ft 523 kts 47°
2026-04-17 15:21 47.24471 151.89525 31850 ft 528 kts 47°
2026-04-17 15:21 47.26561 151.93933 32056 ft 523 kts 47°
2026-04-17 15:22 47.28653 151.98343 31987 ft 526 kts 47°
2026-04-17 15:22 47.32807 152.07136 32117 ft 522 kts 47°
2026-04-17 15:22 47.34916 152.11598 31875 ft 528 kts 47°
2026-04-17 15:23 47.36979 152.15985 32032 ft 523 kts 47°
2026-04-17 15:23 47.41176 152.24915 31884 ft 526 kts 47°
2026-04-17 15:23 47.43243 152.29327 32120 ft 522 kts 47°
2026-04-17 15:24 47.45336 152.33798 31895 ft 527 kts 47°
2026-04-17 15:24 47.47395 152.38208 32010 ft 524 kts 47°
2026-04-17 15:24 47.49493 152.42705 32048 ft 525 kts 47°
2026-04-17 15:24 47.51552 152.47128 31878 ft 528 kts 47°
2026-04-17 15:25 47.53637 152.51619 32120 ft 523 kts 47°
2026-04-17 15:25 47.55731 152.56125 31914 ft 528 kts 47°
2026-04-17 15:25 47.57773 152.60535 31991 ft 525 kts 47°
2026-04-17 15:26 47.61922 152.69507 31850 ft 528 kts 48°
2026-04-17 15:26 47.63981 152.73979 32102 ft 522 kts 48°
2026-04-17 15:26 47.66050 152.78470 31932 ft 527 kts 48°
2026-04-17 15:27 47.70149 152.87396 32092 ft 524 kts 47°
2026-04-17 15:27 47.72242 152.91965 31854 ft 528 kts 47°
2026-04-17 15:27 47.74285 152.96431 32081 ft 522 kts 47°
2026-04-17 15:27 47.76326 153.00903 31964 ft 526 kts 48°
2026-04-17 15:28 47.78370 153.05388 31919 ft 526 kts 47°
2026-04-17 15:28 47.80428 153.09909 32098 ft 523 kts 48°
2026-04-17 15:28 47.82467 153.14395 31875 ft 527 kts 47°
2026-04-17 15:28 47.84512 153.18909 32034 ft 523 kts 48°
2026-04-17 15:29 47.86531 153.23366 32007 ft 525 kts 47°
2026-04-17 15:29 47.88573 153.27882 31897 ft 526 kts 47°
2026-04-17 15:29 47.90611 153.32400 32089 ft 523 kts 47°
2026-04-17 15:29 47.92656 153.36935 31908 ft 527 kts 47°
2026-04-17 15:30 47.94684 153.41446 32003 ft 524 kts 47°
2026-04-17 15:30 47.98749 153.50503 31887 ft 527 kts 47°
2026-04-17 15:30 48.00801 153.55093 32086 ft 523 kts 47°
2026-04-17 15:31 48.02834 153.59636 31924 ft 527 kts 47°
2026-04-17 15:31 48.06878 153.68710 32041 ft 525 kts 48°
2026-04-17 15:31 48.08915 153.73292 31871 ft 527 kts 48°
2026-04-17 15:32 48.10925 153.77820 32055 ft 523 kts 48°
2026-04-17 15:32 48.14936 153.86881 31931 ft 525 kts 48°
2026-04-17 15:32 48.16948 153.91437 32076 ft 523 kts 48°
2026-04-17 15:33 48.18977 153.96037 31883 ft 526 kts 48°
2026-04-17 15:33 48.20958 154.00540 32032 ft 523 kts 48°
2026-04-17 15:33 48.22968 154.05112 31995 ft 524 kts 48°
2026-04-17 15:34 48.26977 154.14262 32083 ft 521 kts 48°
2026-04-17 15:34 48.28981 154.18839 31898 ft 525 kts 48°
2026-04-17 15:34 48.30957 154.23373 31998 ft 522 kts 48°
2026-04-17 15:35 48.34964 154.32575 31898 ft 524 kts 49°
2026-04-17 15:35 48.36935 154.37115 32065 ft 520 kts 49°
2026-04-17 15:35 48.38915 154.41679 31941 ft 523 kts 49°
2026-04-17 15:36 48.43012 154.50615 32029 ft 507 kts 38°
2026-04-17 15:36 48.47769 154.58554 32030 ft 507 kts 39°
2026-04-17 15:37 48.52388 154.66588 31937 ft 510 kts 41°
2026-04-17 15:37 48.57015 154.74699 31928 ft 509 kts 41°
2026-04-17 15:38 48.61645 154.82838 31991 ft 507 kts 41°
2026-04-17 15:38 48.66233 154.90926 32013 ft 506 kts 41°
2026-04-17 15:39 48.70818 154.99037 31924 ft 507 kts 41°
2026-04-17 15:39 48.75381 155.07132 31930 ft 507 kts 41°
2026-04-17 15:40 48.79932 155.15233 32001 ft 505 kts 41°
2026-04-17 15:40 48.84501 155.23387 31984 ft 504 kts 41°
2026-04-17 15:41 48.89017 155.31473 31909 ft 506 kts 41°
2026-04-17 15:41 48.93526 155.39566 31933 ft 505 kts 41°
2026-04-17 15:42 48.98055 155.47728 32000 ft 504 kts 41°
2026-04-17 15:42 49.00310 155.51799 31880 ft 506 kts 41°
2026-04-17 15:42 49.02583 155.55910 31962 ft 503 kts 41°
2026-04-17 15:43 49.07092 155.64079 31876 ft 505 kts 42°
2026-04-17 15:43 49.09333 155.68156 32001 ft 502 kts 43°
2026-04-17 15:43 49.11597 155.72273 31914 ft 505 kts 43°
2026-04-17 15:44 49.16084 155.80460 32000 ft 502 kts 43°
2026-04-17 15:44 49.18308 155.84521 31872 ft 505 kts 43°
2026-04-17 15:44 49.20574 155.88673 31993 ft 502 kts 43°
2026-04-17 15:45 49.25033 155.96855 31884 ft 504 kts 43°
2026-04-17 15:45 49.27252 156.00935 32013 ft 501 kts 43°
2026-04-17 15:45 49.29484 156.05051 31893 ft 503 kts 43°
2026-04-17 15:46 49.33932 156.13264 31994 ft 500 kts 43°
2026-04-17 15:46 49.36176 156.17415 31869 ft 502 kts 43°
2026-04-17 15:46 49.38384 156.21512 31977 ft 498 kts 43°
2026-04-17 15:47 49.42823 156.29761 31890 ft 500 kts 43°
2026-04-17 15:47 49.45014 156.33843 31997 ft 499 kts 43°
2026-04-17 15:47 49.47231 156.37975 31891 ft 501 kts 43°
2026-04-17 15:48 49.51659 156.46256 31966 ft 499 kts 43°
2026-04-17 15:48 49.56068 156.54530 31928 ft 499 kts 43°
2026-04-17 15:49 49.60433 156.62741 31887 ft 500 kts 44°
2026-04-17 15:49 49.64841 156.71065 31917 ft 499 kts 44°
2026-04-17 15:50 49.69204 156.79324 31941 ft 498 kts 45°
2026-04-17 15:50 49.73572 156.87624 31892 ft 499 kts 44°
2026-04-17 15:51 49.77927 156.95923 31918 ft 499 kts 44°
2026-04-17 15:51 49.82272 157.04228 31934 ft 498 kts 45°
2026-04-17 15:52 49.86616 157.12558 31897 ft 499 kts 45°
2026-04-17 15:52 49.90980 157.20955 31926 ft 499 kts 45°
2026-04-17 15:53 49.95295 157.29283 31922 ft 498 kts 45°
2026-04-17 15:53 49.99623 157.37663 31893 ft 499 kts 45°
2026-04-17 15:54 50.03950 157.46065 31925 ft 498 kts 45°
2026-04-17 15:54 50.08277 157.54498 31897 ft 499 kts 45°
2026-04-17 15:55 50.12570 157.62891 31909 ft 499 kts 45°
2026-04-17 15:55 50.16868 157.71321 31907 ft 499 kts 46°
2026-04-17 15:56 50.21191 157.79826 31887 ft 500 kts 46°
2026-04-17 15:56 50.25481 157.88297 31907 ft 499 kts 46°
2026-04-17 15:57 50.29760 157.96768 31885 ft 499 kts 46°
2026-04-17 15:57 50.34032 158.05255 31876 ft 499 kts 47°
2026-04-17 15:58 50.38328 158.13818 31879 ft 499 kts 47°
2026-04-17 15:58 50.42580 158.22319 31872 ft 499 kts 47°
2026-04-17 15:59 50.46839 158.30867 31865 ft 499 kts 47°
2026-04-17 15:59 50.51112 158.39467 31870 ft 498 kts 47°
2026-04-17 16:00 50.55365 158.48055 31875 ft 498 kts 47°
2026-04-17 16:00 50.59576 158.56586 31862 ft 498 kts 47°
2026-04-17 16:01 50.63801 158.65176 31876 ft 498 kts 48°
2026-04-17 16:01 50.68045 158.73833 31853 ft 498 kts 48°
2026-04-17 16:02 50.72272 158.82486 31864 ft 497 kts 48°
2026-04-17 16:02 50.76465 158.91098 31865 ft 497 kts 48°
2026-04-17 16:03 50.80667 158.99756 31857 ft 497 kts 48°
2026-04-17 16:03 50.84860 159.08423 31860 ft 496 kts 48°
2026-04-17 16:04 50.89032 159.17078 31852 ft 496 kts 49°
2026-04-17 16:04 50.93218 159.25789 31859 ft 496 kts 49°
2026-04-17 16:05 50.97359 159.34438 31835 ft 496 kts 49°
2026-04-17 16:05 51.01514 159.43141 31838 ft 496 kts 49°
2026-04-17 16:06 51.05665 159.51868 31849 ft 495 kts 49°
2026-04-17 16:06 51.09810 159.60611 31828 ft 496 kts 49°
2026-04-17 16:07 51.13945 159.69363 31858 ft 495 kts 49°
2026-04-17 16:07 51.18087 159.78155 31828 ft 496 kts 49°
2026-04-17 16:08 51.22200 159.86920 31838 ft 496 kts 49°
2026-04-17 16:08 51.26318 159.95721 31838 ft 495 kts 49°
2026-04-17 16:09 51.30424 160.04529 31826 ft 496 kts 50°
2026-04-17 16:09 51.34522 160.13350 31849 ft 495 kts 50°
2026-04-17 16:10 51.38601 160.22157 31825 ft 496 kts 50°
2026-04-17 16:10 51.42694 160.31027 31846 ft 495 kts 50°
2026-04-17 16:11 51.46771 160.39893 31820 ft 496 kts 50°
2026-04-17 16:11 51.50833 160.48756 31836 ft 495 kts 50°
2026-04-17 16:12 51.54884 160.57625 31841 ft 495 kts 50°
2026-04-17 16:12 51.58942 160.66538 31829 ft 496 kts 51°
2026-04-17 16:13 51.62997 160.75479 31842 ft 495 kts 51°
2026-04-17 16:13 51.67043 160.84430 31827 ft 496 kts 51°
2026-04-17 16:14 51.73852 160.96545 31834 ft 481 kts 30°
2026-04-17 16:14 51.76392 160.99970 31854 ft 487 kts 45°